C/2022 N1 ( Attard-Maury )

Japanese version
Home page
Updated on August 6, 2022

---------------------------------------------------------------------

* Profile

Discovery Date July 2, 2022
Magnitude 17.2 mag
Discoverer Georges Attard and Alain Maury (San Pedro de Atacama, Chile)

* Pictures

* Orbital Elements

Epoch 2022 Aug. 9.0 TT = JDT 2459800.5
T 2022 Sept.  9.92873 TT                                Rudenko
q   1.4824524            (2000.0)            P               Q
z  +0.0249832      Peri.   40.99887     -0.13917757     -0.96472749
 +/-0.0009532      Node   301.86121     -0.96330187     +0.07959646
e   0.9629636      Incl.  164.74642     -0.22951931     +0.25092883
From 114 observations 2022 June 29-July 12, mean residual 0".5.

* Finding Charts

* Magnitudes Graph

        m1 = 15.5 + 5 log d + 10.0 log r

---------------------------------------------------------------------

The orbital elements are published on M.P.E.C. 2022-O01.
The charts are made with StellaNavigator Ver.10 (AstroArts).
The magnitudes graphs are made with Comet for Windows.

---------------------------------------------------------------------

Copyright(C) Seiichi Yoshida (comet@aerith.net). All rights reserved.